Regional Weather Roundup
Issued by NWS

Home | Current Version | Previous Version | Text Only | Print | Product List | Glossary Off
Versions: 1 2 3 4 5 6 7 8 9 10 11 12 13 14 15 16 17 18 19 20 21 22 23 24 25 26 27 28 29 30 31 32 33 34 35 36 37 38 39 40 41 42 43 44 45 46 47 48 49 50

000
ASUS43 KBIS 241410
RWRND
NORTH DAKOTA REGIONAL WEATHER ROUNDUP
NATIONAL WEATHER SERVICE EASTERN NORTH DAKOTA/GRAND FORKS ND
900 AM CDT TUE APR 24 2018

  NOTE: "FAIR" INDICATES FEW OR NO CLOUDS BELOW 12,000 FEET WITH NO
  SIGNIFICANT WEATHER AND/OR OBSTRUCTIONS TO VISIBILITY.

NDZ001>003-009>011-017-241500-
...NORTHWEST NORTH DAKOTA...

CITY           SKY/WX    TMP DP  RH WIND       PRES   REMARKS
WILLISTON      FAIR      37  27  67 CALM      30.50R
MINOT          FAIR      42  26  53 NW12      30.45R
MINOT AFB      FAIR      40  27  58 NW10      30.44R WCI  34
$$

NDZ018>021-031>035-040>046-241500-
...SOUTHWEST NORTH DAKOTA...

CITY           SKY/WX    TMP DP  RH WIND       PRES   REMARKS
BISMARCK       FAIR      43  32  65 N13       30.44R
DICKINSON      FAIR      40  27  59 NW8       30.45R WCI  34
GARRISON         N/A     40  29  64 N9        30.45R WCI  34
HETTINGER      PTSUNNY   33  28  81 N10       30.47R WCI  25
$$

NDZ004>008-012>016-024-026-027-054-241500-
...NORTHEAST NORTH DAKOTA...

CITY           SKY/WX    TMP DP  RH WIND       PRES   REMARKS
GRAND FORKS    FAIR      39  33  79 N16       30.39R WCI  30
GRAND FORKS AF FAIR      43  31  62 N12       30.39S
DEVILS LAKE    FAIR      39  29  67 N13       30.42R WCI  31
$$

NDZ022-023-025-028>030-036>039-047>053-241500-
...SOUTHEAST NORTH DAKOTA...

CITY           SKY/WX    TMP DP  RH WIND       PRES   REMARKS
JAMESTOWN      FAIR      42  34  73 N14       30.37R
FARGO          CLOUDY    43  39  86 N12       30.35R
WAHPETON       CLOUDY    41  37  87 N12       30.33S
$$



USA.gov is the U.S. government's official web portal to all federal, state and local government web resources and services.